Terug naar catalogus

STARLINK-32742

ActiefCommunicatieVLEO
NORAD 62605·PAYLOAD·🇺🇸 United States

Gelanceerd Jan 13, 2025 vanaf Cape Canaveral Space Force Station

Loading…

Volgende Passages (komende 24 uur)

TLE

VersSource: CelesTrak SupGP

Epoch: Sep 14, 2026, 22:07 UTC

1 62605C 25008U   26257.92201389  .00012536  00000+0  45402-3 0  2571
2 62605  43.0016 288.9537 0001663 267.6186 259.3229 15.27573207    11

Volg STARLINK-32742 in realtime met AllMySat

Download on the App Store